EW1675 Weather Reports


time (UTC)temp
F
wind
direction
speed
knots
gust
knots
rain 1hr
in
rain 24hr
in
rain mn
in
humidity
%
barometer
mb
20260510054001 55 0 0.0 0.0 0.00 0.00 0.00 88 1010.4
20260510053001 56 0 0.0 0.0 0.00 0.00 0.00 87 1010.4
20260510052043 56 0 0.0 0.0 0.00 0.00 0.00 87 1010.5
20260510051022 56 0 0.0 0.0 0.00 0.00 0.00 86 1010.6
20260510050001 56 0 0.0 0.0 0.00 0.00 0.00 86 1010.5
20260510045022 57 0 0.0 0.0 0.00 0.00 0.00 85 1010.5
20260510044001 57 0 0.0 0.0 0.00 0.00 0.00 85 1010.4
20260510043022 58 0 0.0 0.0 0.00 0.00 0.00 85 1010.5
20260510042002 58 0 0.0 0.0 0.00 0.00 0.00 84 1010.3
20260510041001 58 0 0.0 0.0 0.00 0.00 0.00 84 1010.3
20260510040044 59 0 0.0 0.0 0.00 0.00 0.00 84 1010.3
20260510035023 59 0 0.0 0.0 0.00 0.00 0.00 83 1010.3
20260510034022 60 0 0.0 0.0 0.00 0.00 0.00 82 1010.2
20260510033002 60 0 0.0 0.0 0.00 0.00 0.00 81 1010.1
20260510032022 60 0 0.0 0.0 0.00 0.00 0.00 80 1010.2
20260510031002 61 0 0.0 0.0 0.00 0.00 0.00 80 1010.1
20260510030044 61 0 0.0 0.0 0.00 0.00 0.00 80 1010.1
20260510025044 62 0 0.0 0.0 0.00 0.00 0.00 79 1010.1
20260510024043 62 0 0.0 0.0 0.00 0.00 0.00 79 1010.0
20260510023022 62 0 0.0 0.0 0.00 0.00 0.00 78 1009.8
20260510022002 63 0 0.0 0.0 0.00 0.00 0.00 78 1009.8
20260510021002 63 0 0.0 0.0 0.00 0.00 0.00 77 1009.7
20260510020001 63 0 0.0 0.0 0.00 0.00 0.00 77 1009.7
20260510015044 63 0 0.0 0.0 0.00 0.00 0.00 76 1009.5
20260510014002 64 0 0.0 0.0 0.00 0.00 0.00 76 1009.4
20260510013023 64 0 0.0 0.0 0.00 0.00 0.00 76 1009.3
20260510012043 65 0 0.0 0.0 0.00 0.00 0.00 74 1009.1
20260510011023 65 0 0.0 0.0 0.00 0.00 0.00 73 1008.9
20260510010023 66 0 0.0 0.0 0.00 0.00 0.00 71 1008.9
20260510005001 67 0 0.0 0.0 0.00 0.00 0.00 70 1008.9
20260510004002 68 0 0.0 0.0 0.00 0.00 0.00 69 1008.8
20260510003003 69 0 0.0 0.0 0.00 0.00 0.00 67 1008.7
20260510002023 70 126 0.0 0.9 0.00 0.00 0.00 65 1008.7
20260510001023 70 0 0.0 0.0 0.00 0.00 0.00 64 1008.6
20260510000023 71 0 0.0 0.0 0.00 0.00 0.00 63 1008.5
20260509235002 72 128 0.0 0.9 0.00 0.00 0.00 61 1008.3
20260509234044 72 128 0.0 0.9 0.00 0.00 0.00 61 1008.3
20260509233044 72 128 0.0 0.9 0.00 0.00 0.00 59 1008.2
20260509232044 73 129 0.0 1.7 0.00 0.00 0.00 59 1008.2
20260509231023 73 124 0.0 1.7 0.00 0.00 0.00 58 1008.3
20260509230002 73 114 0.0 0.9 0.00 0.00 0.00 58 1008.2
20260509225044 74 114 0.0 0.9 0.00 0.00 0.00 57 1008.2
20260509224002 74 133 0.0 1.7 0.00 0.00 0.00 55 1008.3
20260509223002 74 151 0.9 4.3 0.00 0.00 0.00 54 1008.3
20260509222023 74 152 0.9 4.3 0.00 0.00 0.00 52 1008.3
20260509221002 75 153 0.0 1.7 0.00 0.00 0.00 48 1008.3
20260509220023 75 153 0.0 2.6 0.00 0.00 0.00 49 1008.2
20260509215002 75 140 0.0 2.6 0.00 0.00 0.00 49 1008.2
20260509214044 76 176 0.9 3.5 0.00 0.00 0.00 48 1008.2
20260509213002 75 254 0.0 2.6 0.00 0.00 0.00 50 1008.1
20260509212002 75 182 0.9 4.3 0.00 0.00 0.00 51 1007.9
20260509211023 75 175 0.9 3.5 0.00 0.00 0.00 53 1008.0
20260509210002 75 159 0.9 4.3 0.00 0.00 0.00 54 1008.0
20260509205002 75 152 0.9 3.5 0.00 0.00 0.00 53 1007.8
20260509204002 75 143 1.7 7.0 0.00 0.00 0.00 53 1008.0
20260509203023 75 151 1.7 6.1 0.00 0.00 0.00 52 1007.9
20260509202002 76 183 0.9 6.1 0.00 0.00 0.00 55 1007.8
20260509201002 76 113 1.7 6.1 0.00 0.00 0.00 59 1007.9
20260509200023 76 168 0.9 4.3 0.00 0.00 0.00 58 1008.2
20260509195002 75 164 1.7 6.1 0.00 0.00 0.00 54 1008.3
20260509194002 74 164 1.7 5.2 0.00 0.00 0.00 60 1008.5
20260509193002 73 133 1.7 6.1 0.00 0.00 0.00 60 1008.5
20260509192002 72 149 1.7 7.0 0.00 0.00 0.00 58 1009.1
20260509191002 71 171 1.7 5.2 0.00 0.00 0.00 59 1009.1
20260509190003 71 166 1.7 6.1 0.00 0.00 0.00 59 1009.2
20260509185002 71 164 0.9 4.3 0.00 0.00 0.00 61 1009.2
20260509184002 71 152 1.7 9.6 0.00 0.00 0.00 60 1009.1
20260509183002 71 170 0.9 4.3 0.00 0.00 0.00 60 1009.2
20260509182023 70 134 0.9 4.3 0.00 0.00 0.00 61 1009.4
20260509181002 70 165 0.9 3.5 0.00 0.00 0.00 60 1009.5
20260509180024 70 137 0.0 3.5 0.00 0.00 0.00 62 1009.9
20260509175002 70 161 0.0 2.6 0.00 0.00 0.00 61 1010.0
20260509174002 70 128 0.9 5.2 0.00 0.00 0.00 59 1010.1
20260509173023 71 142 0.0 3.5 0.00 0.00 0.00 60 1010.1
20260509172002 71 150 0.9 3.5 0.00 0.00 0.00 59 1010.1
20260509171002 71 168 0.9 6.1 0.00 0.00 0.00 59 1010.1
20260509170023 71 176 0.9 2.6 0.00 0.00 0.00 60 1010.1
20260509165023 70 127 0.9 2.6 0.00 0.00 0.00 62 1010.2
20260509164024 70 156 0.9 2.6 0.00 0.00 0.00 61 1010.3
20260509163025 70 155 0.9 7.0 0.00 0.00 0.00 60 1010.3
20260509162002 70 160 1.7 7.8 0.00 0.00 0.00 60 1010.5
20260509161003 70 162 0.9 5.2 0.00 0.00 0.00 64 1010.4
20260509160003 70 166 0.9 5.2 0.00 0.00 0.00 59 1010.4
20260509155023 70 141 0.9 7.0 0.00 0.00 0.00 60 1010.5
20260509154004 69 166 0.9 7.0 0.00 0.00 0.00 61 1010.6
20260509153025 69 160 0.9 5.2 0.00 0.00 0.00 61 1010.7
20260509152044 69 155 1.7 6.1 0.00 0.00 0.00 58 1010.7
20260509151003 69 154 0.9 10.4 0.00 0.00 0.00 61 1010.6
20260509150002 68 153 1.7 7.0 0.00 0.00 0.00 60 1011.0
20260509145003 67 151 1.7 6.1 0.00 0.00 0.00 63 1011.1
20260509144024 66 141 0.9 6.1 0.00 0.00 0.00 62 1011.3
20260509143045 65 133 1.7 6.1 0.00 0.00 0.00 64 1011.3
20260509142002 64 166 0.9 5.2 0.00 0.00 0.00 66 1011.4
20260509141024 62 146 0.9 4.3 0.00 0.00 0.00 69 1011.5
20260509140003 61 157 0.9 2.6 0.00 0.00 0.00 68 1011.5
20260509135003 60 179 0.9 3.5 0.00 0.00 0.00 68 1011.4
20260509134025 60 206 0.0 1.7 0.00 0.00 0.00 69 1011.4
20260509133004 59 198 0.0 2.6 0.00 0.00 0.00 70 1011.6
20260509132003 59 202 0.0 3.5 0.00 0.00 0.00 69 1011.6
20260509131003 59 167 0.9 4.3 0.00 0.00 0.00 70 1011.5
20260509130003 59 161 0.9 5.2 0.00 0.00 0.00 69 1011.5
20260509125003 59 160 0.9 7.0 0.00 0.00 0.00 69 1011.5
20260509124024 58 156 0.9 3.5 0.00 0.00 0.00 69 1011.5
20260509123106 58 178 0.9 4.3 0.00 0.00 0.00 68 1011.6
20260509122003 58 143 0.9 5.2 0.00 0.00 0.00 67 1011.5
20260509121048 58 123 0.9 3.5 0.00 0.00 0.00 66 1011.6
20260509120024 58 171 0.0 1.7 0.00 0.00 0.00 65 1011.6
20260509115024 58 171 0.0 1.7 0.00 0.00 0.00 65 1011.5
20260509114003 58 171 0.0 3.5 0.00 0.00 0.00 64 1011.4
20260509113046 58 160 0.9 3.5 0.00 0.00 0.00 64 1011.5
20260509112004 58 163 0.9 1.7 0.00 0.00 0.00 64 1011.4
20260509111024 58 201 0.0 2.6 0.00 0.00 0.00 64 1011.3
20260509110045 57 199 0.0 2.6 0.00 0.00 0.00 63 1011.4
20260509105025 57 179 0.0 1.7 0.00 0.00 0.00 63 1011.2
20260509104024 57 179 0.0 2.6 0.00 0.00 0.00 62 1011.2
20260509103001 57 181 0.0 1.7 0.00 0.00 0.00 62 1011.2
20260509102001 57 184 0.0 0.9 0.00 0.00 0.00 62 1011.2
20260509101043 57 172 0.0 3.5 0.00 0.00 0.00 61 1010.9
20260509100001 58 160 0.0 1.7 0.00 0.00 0.00 61 1010.9
20260509095001 58 195 0.0 3.5 0.00 0.00 0.00 61 1010.8
20260509094001 58 224 0.0 1.7 0.00 0.00 0.00 60 1010.8
20260509093022 58 180 0.9 3.5 0.00 0.00 0.00 60 1010.9
20260509092001 58 119 0.9 3.5 0.00 0.00 0.00 61 1011.1
20260509091022 57 165 0.9 5.2 0.00 0.00 0.00 61 1011.1
20260509090043 57 161 0.9 4.3 0.00 0.00 0.00 61 1011.3
20260509085022 57 157 0.9 5.2 0.00 0.00 0.00 61 1011.2
20260509084002 57 170 0.9 4.3 0.00 0.00 0.00 62 1011.4
20260509083001 56 109 0.0 2.6 0.00 0.00 0.00 63 1011.4
20260509082001 56 151 0.9 2.6 0.00 0.00 0.00 63 1011.5
20260509081001 56 127 0.0 4.3 0.00 0.00 0.00 63 1011.6
20260509080022 56 168 0.0 2.6 0.00 0.00 0.00 64 1011.7
20260509075023 56 160 0.9 4.3 0.00 0.00 0.00 64 1011.9
20260509074022 56 145 0.0 4.3 0.00 0.00 0.00 64 1011.8
20260509073022 56 120 0.9 2.6 0.00 0.00 0.00 63 1011.9
20260509072022 57 122 0.9 3.5 0.00 0.00 0.00 63 1012.0
20260509071022 57 106 0.9 2.6 0.00 0.00 0.00 62 1011.8
20260509070104 57 122 0.9 4.3 0.00 0.00 0.00 61 1011.7
20260509065001 57 140 0.0 1.7 0.00 0.00 0.00 60 1011.7
20260509064001 57 147 0.9 5.2 0.00 0.00 0.00 60 1011.8
20260509063022 58 143 0.9 6.1 0.00 0.00 0.00 59 1011.9
20260509062022 58 157 0.0 1.7 0.00 0.00 0.00 59 1012.1
20260509061001 58 157 0.0 1.7 0.00 0.00 0.00 58 1012.1
20260509060022 58 137 0.9 4.3 0.00 0.00 0.00 57 1012.1
20260509055001 58 145 0.0 3.5 0.00 0.00 0.00 58 1012.2